SWISSCUBE (35932 NORAD) Tracking and Keplerian Element Data

This shows tracking and keplerian element data for the satellite.

Feedback or suggestion? Click here.




ElementValue
Catalog35932
NameSWISSCUBE
Epoch Orbit75977
Epoch Day12.90966608
Epoch Year2024
RAAN252.9767
Inclination98.4929
Eccentricity0.0008557
Argument of Perigee80.3022
Mean Anonmoly279.9142
Mean Motion14.58416995
Decay Rate1.959E-05
L11 35932U 09051B 24012.90966608 .00001959 00000+0 43292-3 0 9996
L22 35932 98.4929 252.9767 0008557 80.3022 279.9142 14.58416995759774



Live tracking and technical data element details for SWISSCUBE (NORAD 35932). SWISSCUBE can be tracked NOW for your location showing map with azimuth and elevation plus other details from your city location.







IsCatalogInMostPopularTable: catalog: 35932, numindb: 25455
Update: records affected: 1



GetName: 35932 SWISSCUBE

Hit Count: updated at: Sat, 20 Apr 2024 23:11:24 GMT